Weather Roundup
Issued by NWS Chicago, IL

Home | Current Version | Previous Version | Text Only | Print | Product List | Glossary On
Versions: 1 2 3 4 5 6 7 8 9 10 11 12 13 14 15 16 17 18 19 20 21 22 23 24 25 26 27 28 29 30 31 32 33 34 35 36 37 38 39 40 41 42 43 44 45 46 47 48 49 50
000
NZUS59 KLOT 271310
HRRLOT

CHICAGO AREA WEATHER ROUNDUP
NATIONAL WEATHER SERVICE CHICAGO/ROMEOVILLE IL
700 AM CST FRI FEB 27 2015

NOTE: "FAIR" INDICATES FEW OR NO CLOUDS BELOW 12,000 FEET WITH NO
SIGNIFICANT WEATHER AND/OR OBSTRUCTIONS TO VISIBILITY.

* THESE STATIONS ARE NOT UNDER NWS QUALITY CONTROL. THEY ALSO MAY NOT
  REPORT WEATHER SUCH AS PRECIPITATION OR FOG.

ILZ005-006-012>014-019>023-271400-
NORTHEAST ILLINOIS

CITY           SKY/WX    TMP DP  RH WIND       PRES   REMARKS
OHARE          PTCLDY     0 -10  63 NW9       30.52R WCI -15
MIDWAY         PTCLDY     3  -4  72 NW5       30.54R WCI  -6
AURORA         PTCLDY   -12 -18  74 NW6       30.54R WCI -26
LANSING*       PTCLDY   -11 -16  79 SW3       30.54R
JOLIET*        PTCLDY   -11 -15  81 CALM      30.55R
WAUKEGAN       CLEAR     -3 -10  72 W6        30.51R WCI -15
DUPAGE AIRPORT CLEAR     -5 -11  75 CALM      30.52R
WHEELING       CLEAR      1 -10  60 NW9       30.54R WCI -14
KANKAKEE*      PTCLDY   -11 -15  81 W5        30.56R WCI -22
MORRIS*        CLEAR    -11 -15  82 SW3       30.55R
LEWIS AIRPORT* PTCLDY    -6 -11  81 CALM      30.54R
NORTHERLY IS     N/A      8  -1  66 W6          N/A  WCI  -2
$$

WIZ051-052-058>065-066-070>072-271400-
SOUTHEAST WISCONSIN

CITY           SKY/WX    TMP DP  RH WIND       PRES   REMARKS
MILWAUKEE      CLEAR      1  -9  62 W9        30.51R WCI -14
KENOSHA*       CLEAR     -5 -11  75 NW8       30.51R WCI -20
RACINE*        CLEAR     -3 -11  68 W9        30.52R WCI -19
BURLINGTON       N/A    N/A N/A N/A MISG        N/A
WAUKESHA       CLEAR     -4 -11  71 W7        30.50R WCI -18
WEST BEND      CLEAR     -2  -9  71 CALM      30.48R
$$

INZ001>003-010>013-019-020-271400-
NORTHWEST INDIANA

CITY           SKY/WX    TMP DP  RH WIND       PRES   REMARKS
GARY*          CLEAR      5  -6  61 W9        30.54R WCI  -9
MICHIGAN CITY* NOT AVBL
RENSSELAER*    NOT AVBL
VALPARAISO     CLEAR     -2  -6  83 W5        30.51R WCI -12
$$

LMZ740>746-271400-
SOUTHERN LAKE MICHIGAN

STATION/POSITION TIME  SKY/WX   TEMP WIND        PRES    VSBY
                                AIR  DIR/SP/G
                 (UTC)          (F)  (DEG/KT/KT) (MB)    (MI)
HARRISON CRIB    1300             6  290/ 10/ 12   N/A
BURNHAM HARBOR   1300             7  250/  6/  9   N/A
CALUMET HARBOR   1300             5  260/  5/  7 1032.2S
BURNS HARBOR     NOT AVBL
MICHIGAN CITY    1300             6  170/  7/  8   N/A
$$

ABBREVIATIONS USED IN REMARKS
   TC - TEMPERATURE IN CELSIUS
  WCI - WIND CHILL INDEX
   HX - HEAT INDEX
  VSB - VISIBILITY
$$


USA.gov is the U.S. government's official web portal to all federal, state and local government web resources and services.